TimeCST,TemperatureF,Dew PointF,Humidity,Sea Level PressureIn,VisibilityMPH,Wind Direction,Wind SpeedMPH,Gust SpeedMPH,PrecipitationIn,Events,Conditions,WindDirDegrees,DateUTC
12:15 AM,33.8,33.8,100,29.56,0.5,NE,6.9,-,N/A,,Overcast,50,2013-01-29 06:15:00
12:35 AM,33.8,33.8,100,29.54,0.2,ENE,6.9,-,N/A,,Overcast,70,2013-01-29 06:35:00
12:55 AM,33.8,33.8,100,29.52,0.2,ESE,5.8,-,N/A,Fog,Fog,110,2013-01-29 06:55:00
1:15 AM,33.8,33.8,100,29.51,0.2,ESE,6.9,-,N/A,Fog,Fog,110,2013-01-29 07:15:00
1:35 AM,33.8,33.8,100,29.52,0.2,Calm,Calm,-,N/A,Fog,Fog,0,2013-01-29 07:35:00
1:55 AM,33.8,33.8,100,29.52,0.2,NNW,4.6,-,N/A,Fog,Fog,330,2013-01-29 07:55:00
2:15 AM,33.8,33.8,100,29.53,0.2,NW,4.6,-,N/A,Fog,Fog,320,2013-01-29 08:15:00
2:35 AM,33.8,33.8,100,29.55,0.8,WNW,5.8,-,N/A,,Overcast,290,2013-01-29 08:35:00
2:55 AM,33.8,33.8,100,29.55,1.8,NW,6.9,-,N/A,,Overcast,310,2013-01-29 08:55:00
3:15 AM,33.8,33.8,100,29.54,1.5,WNW,4.6,-,N/A,,Overcast,300,2013-01-29 09:15:00
3:35 AM,33.8,33.8,100,29.55,0.8,WNW,3.5,-,N/A,,Overcast,300,2013-01-29 09:35:00
3:55 AM,33.8,33.8,100,29.55,0.2,West,6.9,-,N/A,Fog,Fog,280,2013-01-29 09:55:00
4:15 AM,33.8,33.8,100,29.54,0.2,NW,9.2,-,N/A,Fog,Fog,310,2013-01-29 10:15:00
4:35 AM,33.8,33.8,100,29.55,0.8,NW,12.7,-,N/A,,Overcast,310,2013-01-29 10:35:00
4:55 AM,33.8,33.8,100,29.55,1.5,NNW,10.4,-,N/A,,Overcast,330,2013-01-29 10:55:00
5:15 AM,33.8,33.8,100,29.56,1.8,NNW,9.2,-,N/A,,Overcast,330,2013-01-29 11:15:00
5:35 AM,33.8,33.8,100,29.55,4.0,NNW,12.7,-,N/A,,Overcast,330,2013-01-29 11:35:00
5:55 AM,32.0,32.0,100,29.54,6.0,North,9.2,-,N/A,,Overcast,350,2013-01-29 11:55:00
6:15 AM,32.0,32.0,100,29.55,9.0,North,11.5,-,N/A,,Overcast,350,2013-01-29 12:15:00
6:35 AM,32.0,32.0,100,29.57,10.0,NNW,11.5,17.3,N/A,,Overcast,340,2013-01-29 12:35:00
6:55 AM,32.0,32.0,100,29.56,10.0,North,9.2,-,N/A,,Overcast,350,2013-01-29 12:55:00
7:15 AM,32.0,32.0,100,29.57,10.0,NNW,8.1,13.8,N/A,,Overcast,340,2013-01-29 13:15:00
7:35 AM,32.0,32.0,100,29.59,10.0,NNW,9.2,-,N/A,,Overcast,330,2013-01-29 13:35:00
7:55 AM,32.0,32.0,100,29.61,10.0,NNW,11.5,-,N/A,,Overcast,330,2013-01-29 13:55:00
8:15 AM,32.0,32.0,100,29.62,10.0,NW,12.7,-,N/A,,Overcast,320,2013-01-29 14:15:00
8:35 AM,32.0,32.0,100,29.59,9.0,NNW,15.0,-,N/A,,Overcast,330,2013-01-29 14:35:00
8:55 AM,32.0,32.0,100,29.61,10.0,NNW,12.7,-,N/A,,Overcast,340,2013-01-29 14:55:00
9:15 AM,32.0,32.0,100,29.62,10.0,NNW,13.8,-,N/A,,Overcast,340,2013-01-29 15:15:00
9:35 AM,32.0,32.0,100,29.64,10.0,NNW,13.8,-,N/A,,Overcast,330,2013-01-29 15:35:00
9:55 AM,32.0,30.2,93,29.64,8.0,NW,15.0,20.7,N/A,,Overcast,320,2013-01-29 15:55:00
10:15 AM,32.0,30.2,93,29.66,6.0,NNW,12.7,18.4,N/A,,Overcast,340,2013-01-29 16:15:00
10:35 AM,32.0,32.0,100,29.66,7.0,NNW,10.4,-,N/A,,Overcast,330,2013-01-29 16:35:00
10:55 AM,32.0,32.0,100,29.66,7.0,NNW,10.4,17.3,N/A,,Overcast,330,2013-01-29 16:55:00
11:15 AM,32.0,32.0,100,29.66,7.0,North,10.4,-,N/A,,Overcast,350,2013-01-29 17:15:00
11:35 AM,32.0,32.0,100,29.65,7.0,NNW,11.5,-,N/A,,Overcast,340,2013-01-29 17:35:00
11:55 AM,32.0,32.0,100,29.64,5.0,North,10.4,17.3,N/A,,Overcast,360,2013-01-29 17:55:00
12:15 PM,32.0,32.0,100,29.63,5.0,North,13.8,-,N/A,,Overcast,360,2013-01-29 18:15:00
12:35 PM,32.0,32.0,100,29.63,3.0,North,15.0,21.9,N/A,,Overcast,350,2013-01-29 18:35:00
12:55 PM,32.0,32.0,100,29.62,3.0,North,11.5,18.4,N/A,,Overcast,350,2013-01-29 18:55:00
1:15 PM,32.0,32.0,100,29.61,4.0,North,11.5,19.6,N/A,,Overcast,360,2013-01-29 19:15:00
1:35 PM,32.0,32.0,100,29.62,4.0,North,10.4,-,N/A,,Overcast,360,2013-01-29 19:35:00
1:55 PM,32.0,32.0,100,29.61,5.0,North,13.8,-,N/A,,Overcast,350,2013-01-29 19:55:00
2:15 PM,32.0,32.0,100,29.62,4.0,North,10.4,-,N/A,,Overcast,350,2013-01-29 20:15:00
2:35 PM,32.0,32.0,100,29.61,5.0,NNW,15.0,-,N/A,,Overcast,340,2013-01-29 20:35:00
2:55 PM,32.0,32.0,100,29.60,4.0,North,13.8,21.9,N/A,,Overcast,350,2013-01-29 20:55:00
3:15 PM,-9999,-9999,N/A,29.61,4.0,North,16.1,-,N/A,,Overcast,350,2013-01-29 21:15:00
3:35 PM,30.2,30.2,100,29.61,4.0,North,18.4,-,N/A,,Overcast,350,2013-01-29 21:35:00
3:55 PM,30.2,30.2,100,29.61,5.0,North,13.8,21.9,N/A,,Overcast,360,2013-01-29 21:55:00
4:15 PM,32.0,30.2,93,29.62,6.0,North,13.8,20.7,N/A,,Overcast,360,2013-01-29 22:15:00
4:35 PM,32.0,30.2,93,29.63,9.0,North,15.0,-,N/A,,Overcast,350,2013-01-29 22:35:00
4:55 PM,32.0,30.2,93,29.63,5.0,North,16.1,-,N/A,,Overcast,360,2013-01-29 22:55:00
5:15 PM,32.0,30.2,93,29.64,6.0,North,16.1,23.0,N/A,,Overcast,360,2013-01-29 23:15:00
5:35 PM,32.0,30.2,93,29.64,6.0,North,16.1,-,N/A,,Overcast,350,2013-01-29 23:35:00
5:55 PM,32.0,30.2,93,29.63,6.0,North,13.8,24.2,N/A,,Overcast,360,2013-01-29 23:55:00
6:15 PM,32.0,30.2,93,29.61,6.0,North,23.0,-,N/A,,Overcast,360,2013-01-30 00:15:00
6:35 PM,30.2,30.2,100,29.61,4.0,North,17.3,28.8,N/A,,Overcast,360,2013-01-30 00:35:00
6:55 PM,30.2,30.2,100,29.63,5.0,North,17.3,25.3,N/A,,Overcast,360,2013-01-30 00:55:00
7:15 PM,30.2,28.4,93,29.65,4.0,North,19.6,26.5,N/A,,Overcast,350,2013-01-30 01:15:00
7:35 PM,28.4,28.4,100,29.67,4.0,North,17.3,24.2,N/A,,Overcast,350,2013-01-30 01:35:00
7:55 PM,28.4,28.4,100,29.65,3.0,North,19.6,26.5,N/A,,Overcast,350,2013-01-30 01:55:00
8:15 PM,28.4,28.4,100,29.63,4.0,North,18.4,26.5,N/A,,Overcast,360,2013-01-30 02:15:00
8:35 PM,28.4,26.6,93,29.64,4.0,North,21.9,31.1,N/A,,Overcast,350,2013-01-30 02:35:00
8:55 PM,28.4,26.6,93,29.64,5.0,North,18.4,32.2,N/A,,Overcast,350,2013-01-30 02:55:00
9:15 PM,28.4,26.6,93,29.67,6.0,NNW,21.9,28.8,N/A,Snow,Light Snow,340,2013-01-30 03:15:00
9:35 PM,28.4,26.6,93,29.68,6.0,North,19.6,26.5,N/A,Snow,Light Snow,350,2013-01-30 03:35:00
9:55 PM,26.6,26.6,100,29.68,-9999.0,North,18.4,26.5,N/A,Snow,Light Snow,350,2013-01-30 03:55:00
10:15 PM,26.6,26.6,100,29.66,6.0,North,23.0,32.2,N/A,Snow,Light Snow,360,2013-01-30 04:15:00
10:35 PM,26.6,26.6,100,29.66,6.0,North,21.9,31.1,N/A,Snow,Light Snow,350,2013-01-30 04:35:00
10:55 PM,26.6,24.8,93,29.66,6.0,North,21.9,32.2,N/A,Snow,Light Snow,350,2013-01-30 04:55:00
11:15 PM,26.6,24.8,93,29.64,6.0,North,21.9,31.1,N/A,Snow,Light Snow,360,2013-01-30 05:15:00
11:35 PM,26.6,24.8,93,29.62,7.0,North,23.0,32.2,N/A,Snow,Light Snow,350,2013-01-30 05:35:00
11:55 PM,26.6,24.8,93,29.64,7.0,North,20.7,31.1,N/A,Snow,Light Snow,360,2013-01-30 05:55:00